Location: Unspecified
(28.7810°N, 0.0000°E)
Time: 02:32:55
(UTC+00:00)

SL-14 DEB - Visible Passes

Search period start: 04 April 2026 00:00
Search period end: 14 April 2026 00:00
Orbit: 1148 x 1193 km, 82.6° (Epoch: 28 March)

Date Brightness Start Highest point End Pass type
(mag) Time Alt. Az. Time Alt. Az. Time Alt. Az.
5 Apr ? 00:08:18 11° N 00:08:18 11° N 00:08:36 10° N visible
5 Apr ? 23:43:05 12° N 23:43:05 12° N 23:43:38 10° N visible
6 Apr ? 23:17:52 13° N 23:17:52 13° N 23:18:31 10° N visible
7 Apr ? 22:52:37 13° NNE 22:52:37 13° NNE 22:53:14 10° NNE visible
8 Apr ? 22:27:22 12° NNE 22:27:22 12° NNE 22:27:49 10° NNE visible
9 Apr ? 00:16:11 11° NNW 00:16:11 11° NNW 00:16:25 10° NNW visible
9 Apr ? 22:02:05 10° NNE 22:02:05 10° NNE 22:02:11 10° NNE visible
9 Apr ? 23:50:54 14° NNW 23:50:54 14° NNW 23:51:51 10° NNW visible
10 Apr ? 23:25:37 17° NNW 23:25:37 17° NNW 23:27:03 10° N visible
11 Apr ? 23:00:18 19° N 23:00:18 19° N 23:02:03 10° N visible
12 Apr ? 22:34:57 20° N 22:34:57 20° N 22:36:55 10° N visible
13 Apr ? 22:09:36 20° NNE 22:09:36 20° NNE 22:11:37 10° NNE visible
13 Apr ? 23:58:24 12° NW 23:58:24 12° NW 23:59:01 10° NW visible
